Wind_Speed
44 43 42 41 40 39 39 38 37 36 36 36 37 37 36 35 34 33 32 31 29 28 25 23 21 20 19 19 19 19 18 17 16 16 15 14 14 14 14 13 13 12 11 10 10 10 9 10 10 10 10 10 10 11 11 11 12 13 14 14 15 16 16 17 18 18 18 19 19
44 43 42 40 39 39 38 37 37 36 36 36 36 36 35 34 33 32 31 30 28 26 23 21 19 18 18 18 19 19 18 17 17 16 15 15 15 15 14 14 13 12 11 11 10 10 10 10 10 10 10 11 11 11 12 12 12 13 14 15 15 16 17 18 18 18 19 19 19
45 43 41 40 39 38 38 37 37 37 36 36 35 35 34 33 32 31 30 28 26 23 21 20 18 17 17 18 18 18 18 17 17 16 16 15 15 15 15 15 14 13 12 11 11 10 10 10 11 11 11 11 12 12 12 13 13 14 15 16 16 17 17 18 19 19 19 19 20
44 42 41 40 40 40 39 39 38 38 37 36 35 34 33 32 31 29 28 26 24 22 21 19 18 17 17 17 18 18 18 17 17 16 16 16 16 16 16 15 14 13 12 11 11 11 11 11 11 11 12 12 13 13 13 13 14 15 16 16 17 17 18 18 19 19 20 20 20
43 42 42 41 42 41 41 40 39 39 38 37 35 34 33 31 30 28 27 25 24 22 20 18 17 17 17 17 18 18 18 17 17 17 17 17 17 17 16 15 14 13 12 12 11 11 11 11 12 12 13 13 13 14 14 14 15 16 16 17 17 18 18 19 19 20 20 20 21
43 43 43 42 42 42 41 40 39 38 38 37 36 35 33 32 30 29 27 26 24 22 20 18 17 17 17 18 18 18 18 18 17 17 18 18 17 17 16 15 14 13 12 12 11 11 11 12 12 13 13 13 14 14 14 14 15 16 17 17 18 18 19 19 20 20 21 21 21
44 43 43 43 42 42 41 40 39 38 37 37 36 35 34 32 31 29 28 26 24 22 20 19 18 18 18 18 18 18 18 18 18 18 18 18 17 17 16 15 14 13 12 12 11 12 12 12 13 13 14 14 14 14 14 14 15 16 17 18 18 18 19 20 20 20 21 21 22
44 44 44 43 43 42 41 40 39 38 38 37 37 36 34 33 31 30 28 26 24 23 21 20 19 19 19 19 19 19 19 18 19 19 18 18 17 16 15 15 14 13 12 12 12 12 12 13 13 14 14 14 15 15 15 15 16 17 18 18 18 19 19 19 20 20 21 21 22
42 43 43 43 43 43 42 41 40 39 38 38 37 36 34 33 31 30 29 27 25 23 22 21 20 19 19 19 19 19 19 19 19 19 19 18 17 16 15 14 14 13 13 12 12 12 13 13 14 14 14 15 15 15 15 16 17 18 18 19 19 19 19 19 19 20 21 21 22
41 42 42 42 42 42 42 41 40 39 38 38 37 35 34 33 32 30 29 27 25 24 23 22 21 20 19 19 19 19 19 19 19 19 18 18 17 16 15 14 14 13 13 12 12 13 13 14 14 15 15 15 15 15 15 16 17 18 18 18 18 19 19 19 19 20 21 22 23
42 42 42 42 42 42 42 41 40 39 38 38 36 35 34 33 32 30 29 27 25 24 24 22 21 21 20 19 19 19 19 19 19 18 18 17 16 15 15 14 13 13 13 13 13 13 14 14 15 15 15 15 15 15 16 16 17 17 18 18 18 19 19 19 19 19 20 21 22
42 43 43 43 43 42 42 41 40 39 38 38 37 36 35 33 32 30 28 27 26 25 24 23 22 21 20 19 19 19 19 19 19 18 17 16 16 15 14 14 13 13 13 13 13 14 14 15 15 15 15 15 15 15 16 16 16 17 17 17 18 18 19 19 19 19 20 21 22
41 42 42 43 43 43 42 41 41 40 39 38 37 36 35 33 32 30 29 28 26 25 24 23 22 21 20 19 19 18 19 19 18 18 17 16 15 15 14 14 14 13 13 13 14 14 14 15 15 15 15 15 15 15 16 16 16 16 17 17 18 18 19 19 19 19 20 20 22
41 42 42 42 43 43 42 42 41 40 40 39 38 36 35 33 32 31 29 28 27 26 25 24 22 21 20 19 19 18 18 18 18 18 17 16 15 15 14 14 14 14 14 14 14 14 14 14 14 15 15 15 15 15 15 15 15 16 16 17 18 18 19 19 19 19 20 21 22
40 41 42 43 43 43 42 42 41 41 40 40 38 37 35 34 32 31 30 28 27 26 25 24 23 21 20 19 18 18 18 18 18 17 17 16 15 15 15 14 14 14 14 14 14 14 14 14 14 15 15 16 15 15 15 15 15 16 16 17 18 18 19 19 19 19 20 21 22
39 41 42 43 43 43 43 42 41 41 41 40 39 37 36 34 33 32 30 29 28 26 25 24 23 21 20 19 19 19 19 19 18 18 17 16 16 15 15 15 15 15 14 14 14 14 14 14 14 15 15 15 15 15 14 14 15 15 16 17 17 18 18 19 19 19 20 21 22
39 40 41 43 43 44 43 43 41 41 41 41 39 38 36 35 34 32 31 30 29 27 26 25 23 22 20 20 19 19 19 19 19 18 17 17 16 15 15 15 15 14 14 14 14 14 14 14 14 15 15 15 15 14 14 15 15 16 16 16 17 17 18 18 19 20 21 22 23
38 39 41 43 44 44 44 43 42 41 41 41 40 38 37 35 34 33 32 30 29 28 27 25 24 22 21 20 20 20 20 20 19 19 18 17 16 16 15 15 15 14 14 14 14 14 14 14 14 14 14 14 14 14 14 15 15 16 16 17 17 17 18 19 19 20 21 22 23
38 39 41 43 44 44 44 44 43 42 42 41 40 39 37 36 35 34 32 31 30 29 27 26 24 22 21 21 21 20 20 20 20 19 18 17 16 15 15 15 14 14 14 13 14 14 14 14 14 14 14 13 14 14 14 15 15 16 16 17 17 18 18 19 20 20 21 23 24
37 39 41 43 44 44 44 44 44 43 42 41 40 39 38 36 35 34 33 32 30 29 27 26 24 23 22 21 21 21 21 20 19 19 18 17 16 16 15 15 14 13 13 14 14 14 14 14 14 13 13 13 14 14 15 15 16 16 17 17 18 18 19 20 20 21 22 23 24
37 39 41 43 44 44 44 44 44 43 42 42 41 39 38 37 35 34 33 32 31 29 28 26 25 23 22 22 21 21 21 20 19 18 18 17 16 16 15 14 14 13 14 14 14 14 14 14 13 13 13 13 14 14 15 15 16 17 17 18 19 19 20 21 21 22 23 23 24
37 39 41 42 43 44 44 44 44 43 42 42 41 40 38 37 36 34 33 32 30 29 28 26 25 23 22 22 22 21 21 20 19 18 17 17 16 15 14 14 14 14 14 14 14 14 13 13 12 12 13 13 14 15 15 16 17 18 18 19 20 20 21 21 22 22 23 23 24
36 37 39 41 43 43 43 43 43 42 42 41 41 40 38 37 35 34 33 32 31 29 28 26 24 23 22 22 21 21 20 20 19 18 17 17 16 15 14 14 14 14 14 14 14 13 13 12 12 12 13 13 14 15 16 17 17 18 19 20 20 21 21 22 22 23 23 23 23
34 36 38 40 41 42 42 42 42 42 41 41 41 40 38 37 35 34 33 32 31 29 28 26 24 23 22 21 21 21 20 20 19 18 17 16 15 15 14 14 14 14 14 14 13 12 12 12 12 12 13 13 14 15 16 17 18 19 20 20 21 21 22 22 23 23 23 23 23
34 35 36 38 39 40 41 41 41 41 41 41 41 40 39 37 35 34 33 32 31 29 27 25 24 23 22 21 21 21 20 20 19 18 17 16 15 15 14 14 14 14 14 13 12 11 11 11 12 12 13 14 15 16 17 18 19 19 20 20 21 22 22 23 23 23 23 23 22
33 34 35 37 39 39 40 40 41 41 41 41 41 40 39 37 35 34 33 32 31 29 27 25 24 23 22 22 21 21 20 20 19 18 17 16 15 15 14 14 14 14 13 12 11 11 11 11 11 12 13 15 16 17 18 18 19 19 19 20 20 21 22 22 22 22 22 21 20
33 34 35 37 38 38 39 40 41 41 41 41 40 40 39 37 36 34 33 32 30 29 27 25 24 23 23 22 22 21 20 20 18 17 16 15 15 15 14 14 14 13 12 11 10 10 10 10 11 12 14 15 16 17 18 18 19 19 19 20 20 20 20 20 20 20 20 19 18
33 34 35 36 37 38 39 40 40 40 40 40 40 40 39 37 36 35 33 32 30 28 27 25 24 24 23 22 22 21 20 19 18 17 16 15 15 15 14 14 13 12 11 10 10 10 10 10 12 13 14 15 16 17 17 18 19 19 19 19 20 19 19 18 18 18 17 17 17
34 34 35 35 37 38 38 39 39 39 40 40 40 39 39 37 36 35 33 32 30 29 27 26 25 24 24 23 22 21 20 19 17 16 16 15 15 14 14 13 12 11 10 10 10 10 10 11 12 13 14 14 15 16 17 18 18 19 19 19 19 18 18 17 16 16 16 16 17
34 35 35 36 37 37 38 38 39 39 40 39 39 38 38 37 36 35 33 32 30 29 27 27 26 25 24 23 22 20 19 18 17 16 16 15 15 14 13 12 11 10 10 9 9 10 10 11 12 13 14 14 15 16 17 17 18 18 18 18 18 18 18 17 16 15 16 16 17
35 35 36 36 36 37 38 38 39 39 39 38 38 38 37 37 36 35 33 32 30 28 27 27 26 25 24 22 21 20 19 18 17 16 16 15 14 14 13 11 10 10 9 9 9 10 10 11 12 13 14 14 15 16 16 17 17 18 18 18 18 18 17 17 16 16 17 17 18
35 36 36 36 36 37 37 38 38 38 37 37 37 37 37 37 36 35 33 31 30 29 28 27 26 25 23 22 21 20 19 18 17 16 15 15 14 13 12 11 10 9 9 9 9 10 10 11 12 13 14 14 15 16 16 17 17 17 18 18 18 18 18 17 17 17 17 18 19
35 36 36 36 36 36 36 37 37 37 37 37 37 37 37 37 36 34 32 31 30 29 29 27 26 25 23 22 21 20 18 17 16 15 15 14 13 12 11 10 9 9 8 9 9 10 11 11 12 13 14 14 15 15 16 16 17 17 18 18 18 18 18 17 17 17 17 18 18
35 36 35 35 35 35 35 36 36 36 36 36 36 37 37 36 35 34 32 31 30 29 28 27 25 24 23 21 20 19 18 17 16 15 14 13 12 11 10 9 9 9 8 9 9 10 11 12 12 13 14 14 14 15 16 16 17 17 18 18 18 18 17 17 17 17 17 17 18
36 36 35 35 35 35 35 35 35 36 36 35 36 36 36 36 35 34 32 31 30 29 27 26 24 23 21 20 19 18 17 16 15 14 13 12 11 10 9 9 8 8 8 9 9 10 11 12 12 13 13 14 14 15 16 16 17 18 18 18 18 17 16 16 16 16 16 17 18
37 36 35 34 34 34 34 35 35 35 35 35 35 35 35 35 35 33 32 32 30 29 27 25 23 22 21 20 19 18 17 16 15 14 13 12 11 10 9 8 8 8 8 9 9 10 11 12 12 13 13 13 14 15 15 16 17 18 18 18 17 16 15 15 15 16 17 18 18
37 37 36 35 34 34 34 35 35 34 34 35 35 35 35 35 34 33 33 32 30 29 27 25 24 23 22 20 19 17 16 15 14 14 12 11 10 9 9 8 8 8 8 9 9 10 11 12 12 12 12 13 14 15 15 16 17 17 17 17 17 16 15 15 15 16 17 18 18
38 38 37 35 34 34 34 34 34 34 34 34 35 36 36 35 34 33 33 32 30 28 27 25 24 23 21 19 18 17 16 15 14 13 12 10 9 9 8 8 8 8 8 9 10 10 11 12 12 12 12 12 13 14 15 16 16 17 17 16 16 15 15 15 16 17 17 18 18
38 38 37 36 35 35 34 34 35 35 35 35 35 35 35 35 34 34 33 31 29 28 26 25 23 22 20 18 17 16 15 14 13 12 11 9 9 8 8 8 8 9 9 9 10 10 11 11 11 11 11 12 13 14 15 15 16 16 16 15 15 15 15 16 17 17 17 17 17
38 38 37 37 36 35 35 35 35 35 35 35 35 35 35 35 34 33 32 30 28 26 25 23 22 20 18 17 16 15 15 14 13 11 10 9 8 8 8 8 9 9 9 9 10 10 11 11 11 11 11 12 13 14 14 15 15 15 14 14 14 15 16 16 17 17 17 17 16
38 37 37 37 36 36 36 35 35 35 35 35 36 36 36 35 34 32 31 28 26 25 23 22 20 18 17 16 16 15 14 13 12 10 9 8 8 8 8 8 9 9 9 9 10 10 11 11 10 11 11 12 13 13 13 14 13 13 13 14 14 15 16 17 17 17 16 16 17
Wind_Direction
205 205 204 205 205 204 205 205 206 207 206 205 204 204 205 204 204 204 204 205 206 206 207 207 208 208 208 208 208 209 210 211 213 215 218 221 224 227 230 233 235 237 239 240 242 245 251 257 262 268 272 277 281 286 289 292 294 295 294 294 295 295 295 293 294 295 295 295 295
205 205 204 204 204 204 204 205 205 206 207 207 207 207 207 206 206 206 206 206 207 208 208 207 208 208 208 208 209 209 210 211 213 215 218 221 225 228 231 233 234 236 238 239 242 246 252 257 263 268 272 277 281 285 288 291 293 294 293 294 296 296 295 294 294 296 297 296 296
204 204 203 203 203 203 203 203 204 206 207 208 209 209 209 208 207 207 207 207 207 207 207 206 206 207 207 208 208 209 210 211 213 215 219 222 225 228 230 232 234 235 237 239 243 247 253 259 264 268 272 277 280 284 288 291 293 293 294 295 297 297 295 294 295 297 297 296 295
203 202 202 202 203 204 204 205 205 206 207 209 210 210 210 209 208 208 207 206 206 205 204 204 204 205 206 207 207 208 208 210 212 215 219 223 226 228 230 232 233 234 236 239 244 249 254 260 264 268 272 276 280 284 288 291 293 293 294 296 297 296 295 295 297 297 295 294 294
202 202 202 203 205 206 207 207 207 207 208 209 209 209 209 209 208 207 206 205 204 203 202 202 203 204 205 206 206 206 207 209 212 216 220 224 226 228 230 232 233 234 236 240 245 250 255 260 264 268 272 276 280 284 288 291 293 293 295 296 297 297 297 297 297 296 295 293 293
201 202 203 204 205 207 208 208 208 208 208 208 208 208 208 207 206 206 205 203 202 201 200 201 203 204 205 205 205 205 206 209 213 217 221 224 226 228 230 231 232 234 237 241 246 251 256 260 264 268 272 277 280 284 288 291 293 294 295 296 297 298 298 297 297 297 295 293 292
201 201 202 203 205 206 207 208 208 208 208 208 208 208 207 206 205 204 203 202 200 199 199 201 203 204 204 204 204 205 207 210 214 218 222 225 227 228 229 231 232 234 237 242 247 252 256 260 265 269 273 277 281 284 288 291 293 294 295 296 298 300 299 298 298 297 295 293 292
201 202 202 203 205 206 207 208 207 207 207 208 208 208 207 205 204 203 202 201 200 199 200 202 204 205 205 204 204 206 208 212 216 220 223 225 227 228 229 230 232 234 238 243 248 252 257 261 265 269 274 277 281 285 289 292 294 294 295 296 299 300 299 299 299 297 295 293 292
200 201 202 203 204 205 206 207 207 207 207 208 208 208 206 204 203 202 201 200 199 199 200 203 204 205 205 205 206 208 211 214 218 221 223 225 227 228 229 230 232 235 239 244 248 253 257 261 265 269 274 278 282 286 290 293 293 294 295 296 298 298 299 299 299 297 296 293 291
199 200 201 202 203 205 206 206 207 207 208 208 208 207 206 204 203 202 201 200 199 199 201 203 205 205 206 207 208 210 213 216 220 222 224 225 227 228 229 231 233 237 240 244 248 253 258 262 266 270 274 278 283 286 290 292 293 294 295 296 297 298 298 299 299 298 296 293 291
199 199 200 201 202 203 204 205 206 207 208 208 208 207 205 204 203 202 201 199 199 200 202 203 205 206 207 208 210 212 215 218 221 223 224 226 227 228 230 232 234 238 241 245 249 254 258 262 267 271 275 279 283 286 289 292 293 294 295 296 296 297 297 298 298 297 296 294 292
199 199 200 201 202 202 203 203 204 206 207 208 208 207 205 204 203 201 200 200 200 201 202 204 205 207 208 209 211 214 216 219 221 223 224 226 227 228 230 233 235 238 242 245 250 254 259 263 268 272 276 280 283 287 289 292 293 294 295 295 296 296 297 297 298 297 296 294 292
199 199 199 200 201 201 202 202 204 205 206 207 207 206 205 203 202 201 200 200 201 201 202 204 206 207 209 211 213 215 218 219 221 223 224 225 227 229 231 233 236 239 242 246 251 255 259 264 269 273 277 281 284 287 289 291 292 293 294 295 295 295 296 297 298 298 296 294 292
199 198 198 199 199 200 200 201 203 204 205 206 206 206 204 203 202 201 200 201 201 202 203 204 206 208 210 212 214 216 218 220 221 222 224 225 227 229 231 233 236 240 244 248 252 256 260 265 270 274 279 282 285 287 288 290 291 292 293 294 295 295 296 298 298 298 296 295 293
197 198 198 198 199 199 200 200 201 203 204 205 205 205 203 202 201 201 201 201 202 202 203 205 206 208 210 213 215 217 219 220 221 222 223 225 227 229 231 234 238 241 245 249 253 257 262 267 271 276 279 283 285 286 287 289 290 291 293 294 295 296 297 298 298 298 296 295 293
196 197 197 197 198 198 199 199 201 202 203 204 204 204 203 202 201 201 201 201 202 203 204 205 206 208 210 212 215 217 219 220 221 222 223 225 227 229 232 235 239 243 247 251 254 259 263 268 273 276 280 283 285 286 287 289 290 292 293 294 296 297 298 298 298 297 297 296 294
195 196 196 197 197 198 198 199 200 201 202 203 204 203 203 202 201 201 201 202 202 203 205 206 207 208 210 212 215 217 218 219 220 222 223 225 227 230 233 236 241 244 248 252 257 261 265 269 273 277 280 282 284 285 287 289 291 293 294 296 296 297 298 298 298 297 297 296 294
194 195 196 196 197 198 198 199 199 200 202 203 203 203 203 202 202 201 201 202 202 203 204 205 207 208 210 212 214 216 218 219 221 222 224 226 228 231 234 238 241 245 249 254 258 262 267 270 274 277 278 280 282 285 288 290 292 294 296 297 297 297 297 297 297 297 296 295 294
194 194 195 196 197 198 199 199 199 200 202 203 203 203 203 203 202 202 202 202 203 203 204 205 206 208 211 213 215 217 219 220 222 223 225 227 229 232 235 238 242 246 250 255 260 264 268 271 274 276 278 280 283 286 288 291 293 295 296 296 297 296 296 296 296 296 295 294 294
194 194 195 196 197 198 199 199 200 201 202 203 203 203 203 203 203 202 202 202 202 203 204 205 206 208 211 213 216 218 219 221 223 224 225 227 230 232 236 239 242 247 252 256 261 265 268 271 273 275 277 280 283 286 290 292 294 295 296 296 296 296 296 296 296 295 295 294 293
194 195 196 197 197 198 199 200 200 201 202 203 203 204 204 204 203 203 203 202 202 203 204 206 207 209 211 213 215 217 219 221 222 224 225 227 229 232 235 239 244 248 253 257 262 266 269 271 272 274 277 281 284 288 291 293 294 295 295 295 295 295 296 296 295 295 294 294 294
195 196 197 197 198 198 199 200 200 201 202 203 204 204 204 204 204 204 203 203 202 203 204 206 208 210 212 214 216 217 219 220 222 223 225 227 229 232 236 240 245 249 254 258 263 266 268 269 271 275 279 283 286 290 292 293 294 294 294 294 295 295 295 295 295 295 295 295 294
195 196 196 197 198 198 199 199 199 200 201 202 203 204 204 205 204 204 203 203 203 203 204 206 208 210 212 214 216 217 218 219 221 222 224 226 228 232 236 241 245 250 255 260 263 265 266 268 272 276 281 285 288 291 292 292 292 293 294 294 295 295 295 295 295 295 295 295 294
195 195 196 197 197 197 198 198 198 199 200 201 203 204 205 205 204 204 204 204 204 204 205 206 208 210 212 214 215 216 217 218 219 220 222 225 228 232 236 241 247 252 257 260 261 263 266 269 274 279 284 286 288 290 290 291 292 293 293 294 295 295 295 295 295 295 294 294 293
194 194 195 196 196 196 197 197 197 198 199 201 203 204 204 205 204 204 204 204 204 204 205 206 207 209 210 212 213 214 215 216 218 219 221 224 228 232 237 243 248 253 256 257 259 262 268 274 280 284 286 287 288 289 290 291 292 293 294 295 295 295 295 294 294 294 294 294 293
194 194 194 195 195 195 196 196 197 198 199 200 202 203 204 204 204 204 204 204 204 204 204 205 206 207 208 210 210 212 213 215 216 218 221 224 228 233 238 244 249 252 253 255 257 264 271 277 280 281 282 284 287 289 291 292 293 295 295 295 296 295 294 293 293 294 295 294 292
193 193 194 195 195 195 195 196 197 198 198 199 200 202 203 204 204 204 204 204 204 204 204 204 205 205 206 208 209 210 211 213 215 218 222 225 230 235 240 244 247 249 250 253 259 268 274 277 274 273 276 280 284 287 290 292 293 295 295 295 295 295 295 294 294 295 296 294 292
192 192 193 193 194 194 195 196 196 196 197 198 200 201 202 203 204 204 204 204 204 203 203 202 203 204 205 206 208 209 211 213 215 218 222 226 231 236 240 243 244 245 249 255 263 271 275 272 271 273 276 279 283 286 289 291 293 294 295 295 296 296 296 296 296 295 295 293 293
191 191 192 192 193 194 195 195 195 196 197 198 199 200 201 202 203 204 204 204 203 202 201 200 200 202 203 205 207 208 210 213 216 219 223 227 233 237 240 241 242 244 250 258 266 273 274 269 271 275 278 281 284 286 289 291 292 294 295 295 296 297 297 296 295 294 292 293 295
191 190 191 191 192 193 194 195 196 196 197 198 198 199 200 201 202 203 203 203 202 201 199 199 199 200 202 204 206 208 210 213 216 219 224 229 233 236 237 238 240 244 252 260 268 273 273 270 273 277 280 282 285 287 289 291 292 293 294 295 296 296 296 296 294 293 294 296 300
191 191 191 191 192 192 193 195 196 196 196 196 197 197 198 199 201 202 202 202 201 199 198 198 199 200 202 204 205 207 210 213 216 220 225 229 233 234 234 235 240 246 255 262 268 272 273 272 274 277 280 283 286 288 289 290 291 292 293 295 296 297 297 296 295 295 297 300 302
191 191 190 191 191 192 193 194 194 195 195 195 196 196 198 199 201 202 202 201 199 197 196 197 198 199 201 202 205 207 210 213 217 221 225 229 230 231 232 234 240 248 256 262 267 272 274 273 275 278 281 284 286 288 289 289 291 292 294 295 296 296 296 295 296 297 299 301 303
190 190 190 190 191 192 192 193 193 193 194 194 195 196 197 199 201 201 201 199 197 195 195 196 197 198 200 201 204 207 210 214 218 221 225 226 226 227 229 234 242 250 258 263 268 272 273 273 275 279 282 285 287 288 288 290 292 294 294 295 295 294 294 294 295 297 299 301 303
190 189 190 190 190 191 191 191 192 192 192 193 194 196 197 198 199 199 198 196 195 195 195 196 197 198 200 201 204 207 210 214 218 221 222 221 222 223 228 235 244 252 258 263 269 273 274 273 276 280 283 286 287 288 289 291 292 294 294 294 293 293 293 293 295 297 300 302 304
189 188 189 189 189 189 189 189 190 190 191 191 193 195 196 197 198 197 195 193 192 193 194 195 197 198 200 202 205 207 211 214 216 217 217 216 218 222 229 237 246 253 259 264 270 274 275 274 278 281 284 286 287 288 289 291 292 293 293 294 293 293 293 294 296 299 302 304 305
188 188 187 188 188 188 188 188 188 188 189 190 191 193 194 196 196 195 192 191 191 191 192 193 195 196 199 201 204 208 211 213 214 213 212 213 217 223 231 239 247 253 259 264 270 274 276 276 278 281 283 285 286 287 289 290 291 293 293 294 294 294 295 296 299 302 303 304 305
188 187 187 186 186 187 187 187 187 186 187 189 190 191 193 194 193 191 190 189 189 190 191 192 194 196 199 201 204 207 210 212 211 210 209 212 217 224 233 241 248 254 259 265 269 273 275 275 277 280 282 284 285 287 289 291 292 293 293 293 294 295 296 299 301 303 303 304 305
188 187 186 186 185 186 186 186 186 186 187 188 190 191 192 191 189 188 187 188 188 189 190 191 193 196 199 201 204 207 209 209 209 208 208 212 218 226 234 243 250 256 261 265 269 272 274 275 276 278 281 283 285 288 290 292 293 292 292 292 293 295 297 300 301 302 302 303 306
187 187 186 186 185 185 185 185 186 186 187 188 188 189 189 188 186 186 186 188 188 189 189 191 193 195 198 201 204 205 206 206 206 207 209 214 221 229 237 245 251 257 261 266 270 273 274 275 276 277 280 283 285 288 290 292 292 291 290 291 293 296 298 299 300 300 301 304 308
187 187 187 186 186 186 185 186 187 187 188 187 187 187 186 185 185 185 186 187 188 189 190 191 193 195 197 200 202 203 202 201 203 206 210 216 223 231 239 247 253 258 263 268 271 273 274 274 275 277 280 283 286 287 289 290 289 289 289 291 294 297 298 298 298 299 300 304 309
187 186 186 187 187 186 186 186 186 187 187 187 186 186 185 184 183 184 184 186 187 189 190 191 192 194 197 199 200 199 198 198 201 205 210 216 223 232 240 248 255 260 266 269 272 272 273 274 275 277 280 283 286 287 287 287 287 287 289 292 295 296 296 296 297 298 302 306 310
Height
760 762 764 766 768 770 772 774 776 778 779 781 783 784 786 788 789 791 792 794 795 796 797 799 800 801 803 804 805 806 807 809 809 810 811 812 813 814 814 815 816 816 817 817 818 818 818 819 819 819 819 819 819 819 819 819 819 819 819 819 819 818 818 818 818 817 817 817 816
758 760 762 764 766 769 770 773 774 776 778 780 781 783 784 786 788 789 791 792 794 795 797 798 799 800 802 803 804 805 806 807 808 809 810 811 812 813 814 814 815 815 816 816 816 817 817 818 818 818 818 818 818 818 818 818 818 818 818 817 817 817 817 816 816 816 815 815 815
755 758 760 762 764 766 769 771 773 774 776 778 780 782 783 785 786 788 789 791 793 794 796 797 798 799 800 802 803 804 805 806 807 808 809 810 811 812 812 813 814 814 814 815 815 816 816 816 817 817 817 817 817 817 817 817 817 817 816 816 816 816 815 815 814 814 814 814 813
754 756 758 760 762 764 766 768 770 772 774 776 779 780 782 784 785 787 789 790 792 793 794 795 797 798 799 800 802 803 804 805 806 807 808 809 810 811 811 812 812 813 814 814 814 815 815 815 815 815 816 816 816 816 816 816 815 815 815 815 814 814 814 814 813 813 813 812 812
752 754 755 757 759 761 764 766 768 770 773 775 777 779 781 783 784 786 788 789 790 792 793 794 795 797 798 799 800 801 803 804 805 806 807 808 809 809 810 811 811 812 812 813 813 814 814 814 814 814 814 814 814 814 814 814 814 814 814 813 813 813 812 812 812 811 811 811 810
749 751 753 755 757 760 762 764 766 769 771 773 775 777 779 781 783 784 786 787 789 790 792 793 794 796 797 798 799 800 801 802 804 804 805 806 807 808 809 809 810 810 811 811 812 812 813 813 813 813 813 813 813 813 813 813 813 812 812 812 812 811 811 811 810 810 809 809 809
746 749 751 753 756 758 760 763 765 767 769 771 773 775 777 779 780 782 784 786 787 789 790 792 793 794 795 796 798 799 800 801 802 803 804 805 806 807 808 808 809 809 810 810 811 811 811 811 812 812 812 812 812 812 812 812 811 811 810 810 810 810 810 809 809 809 808 808 807
744 747 749 751 754 756 758 761 763 765 768 769 771 773 775 777 779 780 782 784 786 787 789 790 791 793 794 795 796 797 799 800 801 802 803 804 805 805 806 807 807 808 809 809 809 810 810 810 810 810 810 810 810 810 810 810 810 809 809 809 809 809 808 808 807 807 806 806 805
744 745 747 749 752 754 756 759 761 763 765 767 769 771 773 775 777 779 780 782 784 785 787 788 790 791 792 794 794 796 797 798 799 801 802 803 803 804 805 805 806 806 807 808 808 808 809 809 809 809 809 809 809 809 809 809 808 808 808 807 807 807 807 806 806 805 805 804 804
741 743 746 748 750 752 755 757 759 761 763 765 767 769 771 774 775 777 779 780 782 784 785 787 788 789 791 792 793 794 796 797 798 799 800 801 802 803 803 804 804 805 806 806 807 807 807 807 807 808 808 808 808 807 807 807 807 806 806 806 805 805 805 805 804 804 803 803 802
738 741 743 745 748 750 753 755 758 759 762 764 765 768 770 772 773 775 777 779 780 782 784 785 787 788 789 790 792 793 794 795 797 798 799 799 800 801 802 803 803 804 804 805 805 806 806 806 806 806 806 806 806 806 806 806 805 805 804 804 804 804 803 803 803 802 802 801 800
736 739 741 744 746 749 751 753 755 758 759 762 764 766 768 769 771 774 775 777 779 780 782 784 785 786 788 789 790 792 793 794 795 796 797 798 799 800 800 801 802 802 803 804 804 804 804 804 804 804 805 805 804 804 804 804 804 804 803 803 803 802 802 801 801 800 800 799 799
735 737 739 742 744 747 749 751 753 755 757 759 761 764 766 768 770 772 774 775 777 779 780 782 783 785 786 787 789 790 791 793 794 795 796 797 798 798 799 800 800 801 802 802 803 803 803 803 803 803 803 803 803 803 803 803 802 802 802 801 801 801 800 799 799 799 798 798 797
733 735 738 740 742 744 747 749 751 753 755 757 759 761 764 766 768 770 772 773 775 777 779 780 782 783 784 786 787 789 790 791 792 793 794 795 796 797 798 798 799 799 800 800 801 801 801 801 802 802 801 801 801 801 801 801 801 800 800 800 799 799 798 798 797 797 796 796 795
731 733 735 738 740 742 744 746 748 750 753 755 757 759 762 764 766 768 769 771 773 775 777 779 780 781 783 784 786 787 789 790 791 792 793 794 794 795 796 797 797 798 799 799 799 800 800 800 800 800 800 800 800 800 800 799 799 799 799 798 798 797 797 796 796 795 794 794 793
729 731 733 735 737 739 742 744 746 748 750 752 755 757 759 762 764 766 768 769 772 773 775 777 778 780 781 783 784 786 787 788 789 790 791 792 793 794 794 795 796 796 797 798 798 798 798 798 799 799 798 798 798 798 798 798 798 797 797 797 796 796 795 794 794 794 793 792 791
727 729 730 733 734 737 739 741 743 745 748 750 753 755 757 759 762 764 766 768 769 771 773 775 776 778 780 781 783 784 785 787 788 789 789 790 791 792 793 794 794 795 795 796 796 796 797 797 797 797 797 797 797 796 796 796 796 796 795 795 794 794 794 793 792 792 791 790 789
724 726 728 729 732 734 736 738 740 743 745 748 750 753 755 757 759 761 764 765 767 769 771 773 775 776 778 779 781 782 784 785 786 787 788 789 790 791 791 792 793 794 794 794 794 795 795 795 795 795 795 795 795 795 795 794 794 794 794 793 793 792 792 791 791 790 789 789 788
722 724 725 727 729 731 733 736 738 741 743 746 748 751 753 755 757 759 762 764 765 767 769 771 773 774 776 778 779 781 782 783 784 785 786 787 788 789 790 791 791 792 792 793 793 793 793 794 794 794 794 794 794 793 793 793 793 792 792 792 791 791 790 789 789 788 788 787 786
719 721 722 724 726 729 731 734 736 739 741 744 746 749 751 753 755 757 759 761 764 765 768 769 771 773 774 776 778 779 780 781 783 784 785 786 787 788 789 789 790 790 791 791 791 791 792 792 792 792 792 792 792 792 792 791 791 791 790 790 789 789 789 788 787 787 786 785 784
717 719 720 722 724 727 729 732 734 737 739 742 744 747 749 751 753 755 758 759 762 764 766 768 769 771 773 774 776 777 779 780 781 782 784 784 785 786 787 788 788 789 789 789 789 790 790 790 790 790 790 790 790 790 790 790 789 789 789 788 788 787 787 786 785 784 784 783 782
715 717 719 721 723 726 728 730 733 735 738 740 742 745 747 749 751 754 756 758 760 762 764 766 768 769 771 773 774 776 777 779 780 781 782 783 784 784 785 786 786 787 787 788 788 788 789 789 789 789 789 789 789 789 788 788 788 787 787 786 786 785 785 784 784 783 782 781 780
714 716 718 720 722 724 727 729 732 734 736 739 741 743 745 748 750 752 754 757 759 760 762 764 766 768 769 771 773 774 776 777 778 779 780 781 782 783 784 784 785 785 786 786 786 787 787 787 787 787 787 787 787 787 787 786 786 785 785 784 784 783 783 782 782 781 780 779 779
714 715 717 719 721 723 725 728 730 732 734 736 739 741 744 746 748 751 753 755 757 759 761 763 764 766 768 770 771 773 774 775 777 778 779 780 781 781 782 783 783 784 784 784 785 785 785 785 786 786 786 786 785 785 785 784 784 784 783 782 782 781 781 780 779 779 778 778 777
713 714 716 718 720 722 724 726 728 730 732 734 737 739 742 744 747 749 751 753 755 757 759 761 763 765 766 768 770 771 772 774 775 776 777 778 779 780 780 781 781 782 782 783 783 784 784 784 784 784 784 784 784 783 783 783 782 782 781 780 780 779 779 778 778 777 776 776 775
712 713 715 716 718 720 722 724 726 728 730 733 735 738 740 742 745 747 749 751 754 756 758 759 761 763 765 766 768 769 771 772 773 774 775 776 777 778 779 779 780 780 781 781 782 782 782 782 782 782 782 782 782 781 781 781 780 780 779 779 779 778 777 776 776 775 775 774 774
710 712 713 715 717 719 720 722 724 726 729 731 733 736 738 741 743 745 748 750 752 754 756 758 760 762 763 765 766 768 769 770 772 773 774 775 776 776 777 778 778 779 779 780 780 781 781 781 781 781 781 781 781 780 780 779 779 779 778 778 777 776 776 775 774 774 773 773 772
709 710 712 714 715 717 719 720 723 725 727 729 731 734 736 739 741 744 746 748 750 753 754 756 758 760 761 763 764 766 767 769 770 771 772 773 774 775 775 776 777 777 778 779 779 779 779 779 780 780 780 779 779 779 778 778 778 777 777 776 775 775 774 774 773 772 772 771 771
707 709 710 712 714 715 717 719 721 723 725 727 730 732 735 737 739 742 744 747 749 751 753 754 756 758 760 761 763 764 766 767 769 770 771 772 772 773 774 774 775 776 776 777 777 778 778 778 778 778 778 778 778 777 777 776 776 775 775 774 774 773 773 772 771 771 770 769 769
705 707 709 710 712 714 716 717 719 721 724 726 729 731 733 735 738 740 743 745 747 749 751 753 754 756 758 759 761 763 764 766 767 768 769 770 770 771 772 773 774 774 775 775 776 776 776 777 777 777 776 776 776 776 775 775 774 774 774 773 772 772 771 771 770 769 769 768 767
704 705 707 709 710 712 714 716 718 720 723 725 727 729 731 734 736 738 741 743 745 748 749 751 753 754 756 758 760 761 763 764 765 766 767 768 769 770 770 771 772 773 773 774 774 774 775 775 775 775 775 775 774 774 774 773 773 772 772 771 771 770 770 769 769 768 767 766 765
702 704 705 707 709 711 713 715 717 719 721 723 725 728 730 732 734 737 739 742 744 746 748 750 752 753 755 757 759 760 761 763 764 765 766 767 767 768 769 770 770 771 772 772 773 773 773 773 773 773 773 773 773 773 772 772 771 771 770 770 769 769 768 768 767 766 766 765 764
701 702 704 706 707 709 711 714 716 718 720 722 724 726 728 730 733 735 738 740 743 744 746 748 750 752 754 755 757 758 760 761 762 763 764 765 766 767 768 768 769 769 770 771 771 771 771 772 772 772 772 771 771 771 770 770 770 769 769 768 768 767 767 766 765 765 764 764 763
699 701 702 704 706 708 710 712 714 716 718 720 723 724 727 729 732 734 737 739 741 743 745 747 748 750 752 754 755 757 758 759 761 762 763 764 764 765 766 767 767 768 769 769 769 770 770 770 770 770 770 770 769 769 769 769 768 768 767 767 766 766 765 765 764 764 763 762 761
697 699 701 703 705 707 709 711 713 715 717 719 721 723 725 728 730 732 735 737 739 742 744 746 747 749 751 753 754 756 757 758 759 760 761 762 763 764 764 765 766 767 767 768 768 768 768 769 769 769 769 768 768 768 767 767 767 766 766 765 765 764 764 763 763 762 761 761 760
695 697 699 701 704 705 707 709 711 713 715 717 719 722 724 726 729 731 734 736 738 740 743 744 746 748 750 751 753 754 755 756 758 759 760 761 762 762 763 764 764 765 766 766 766 767 767 767 767 767 767 767 766 766 766 765 765 764 764 764 763 763 762 762 761 761 760 759 759
693 695 697 699 702 704 706 708 709 711 714 715 718 720 722 725 728 730 733 735 737 739 741 743 745 747 748 750 751 753 754 755 756 757 758 759 760 761 762 762 763 764 764 764 765 765 765 765 765 765 765 765 765 764 764 764 764 763 763 762 762 761 761 760 760 759 759 758 757
691 694 696 698 700 702 704 706 708 710 712 714 716 719 721 724 726 729 731 733 735 737 739 741 743 745 747 748 750 751 753 754 755 756 757 758 759 759 760 761 761 762 763 763 763 763 764 764 764 764 764 764 763 763 763 762 762 761 761 760 760 760 759 759 759 758 757 757 756
690 692 694 696 698 700 703 704 706 708 710 712 715 717 720 722 725 727 730 732 734 736 738 740 742 744 746 747 749 750 751 753 754 755 756 756 757 758 759 759 760 760 761 761 762 762 762 762 762 762 762 762 762 762 761 761 760 760 759 759 759 758 758 758 757 757 756 755 754
689 691 693 695 697 699 701 703 705 707 709 711 714 716 719 721 724 726 729 731 733 735 737 739 741 743 744 746 747 749 750 751 752 754 754 755 756 757 757 758 758 759 759 760 760 760 760 760 760 761 761 761 760 760 760 759 759 759 758 758 757 757 757 756 756 755 754 754 753
688 690 692 694 695 697 699 701 704 706 708 710 712 715 717 720 723 725 728 730 733 734 736 738 740 742 744 745 746 747 749 750 751 752 753 754 755 755 756 756 757 757 758 758 758 759 759 759 759 759 759 759 759 759 758 758 758 757 757 756 756 756 755 754 754 754 753 752 751